Location: Unspecified
(47.9110°N, 14.3980°E)
Time: 03:46:59
(UTC+00:00)

Cosmos 1862 Rocket - Pass Details

Date: 06 August 2020
Orbit: 603 x 635 km, 82.5° (Epoch: 25 September)

Event Time Altitude Azimuth Distance (km) Brightness Sun altitude
Rises 20:54:49 0° 346° (NNW) 2,943 8.3 -19.1°
Reaches altitude 10° 20:57:07 10° 341° (NNW) 2,028 7.3 -19.4°
Maximum altitude 21:01:28 51° 266° (W) 795 4.2 -19.7°
Enters shadow 21:03:27 29° 205° (SSW) 1,159 4.6 -19.9°
